Flag for Spain

Past Weather in Lugo, Galicia, Spain — Yesterday and Last 2 Weeks

Now
54 °F

Passing clouds.


Feels Like: 51 °F
Forecast: 74 / 46 °F
Wind: 8 mph from East

Location: Santiago / Labacolla
Current Time: Sep 28, 2020 at 12:29:47 pm
Latest Report: Sep 28, 2020 at 11:30 am
Visibility: N/A
Pressure30.12 "Hg
Humidity: 77%
Dew Point: 46 °F
Location of LugoLocation

Past Weather in Lugo — Graph

°F

Lugo Temperature Yesterday

Maximum temperature yesterday: 63 °F (at 3:30 pm)
Minimum temperature yesterday: 50 °F (at 10:00 pm)
Average temperature yesterday: 57 °F

High & Low Weather Summary for the Past Weeks

 TemperatureHumidityPressure
High93 °F (Sep 13, 3:30 pm)100% (Sep 17, 8:30 pm)30.39 "Hg (Sep 17, 8:30 pm)
Low46 °F (Sep 28, 3:00 am)23% (Sep 13, 2:00 pm)29.80 "Hg (Sep 17, 4:30 pm)
Average62 °F81%30.06 "Hg
* Reported Sep 13 11:00 am — Sep 28 11:00 am, Lugo. Weather by CustomWeather, © 2020

Note: Actual official high and low records may vary slightly from our data, if they occured in-between our weather recording intervals... More about our weather records

Lugo Weather History for the Previous 24 Hours

Scroll right to see more
 ConditionsComfort  
Time TempWeatherWind HumidityBarometerVisibility
11:00 am
Mon, Sep 28
54 °FPassing clouds.8 mph77%30.12 "HgN/A
10:30 am52 °FPassing clouds.7 mph77%30.12 "HgN/A
10:00 am52 °FPassing clouds.7 mph77%30.12 "HgN/A
9:30 am48 °FPassing clouds.5 mph82%30.12 "HgN/A
9:00 am48 °FPassing clouds.3 mph82%30.12 "HgN/A
8:30 am48 °FPassing clouds.5 mph82%30.12 "HgN/A
8:00 am48 °FPassing clouds.7 mph82%30.12 "HgN/A
7:30 am46 °FPassing clouds.3 mph87%30.09 "HgN/A
7:00 am46 °FPassing clouds.3 mph87%30.12 "HgN/A
6:30 am48 °FPassing clouds.6 mph82%30.12 "HgN/A
6:00 am48 °FPassing clouds.6 mph82%30.12 "HgN/A
5:30 am48 °FPassing clouds.6 mph82%30.12 "HgN/A
5:00 am46 °FClear.3 mph87%30.12 "Hg10 mi
4:30 am48 °FPassing clouds.5 mph82%30.12 "HgN/A
4:00 am48 °FPassing clouds.6 mph82%30.12 "HgN/A
3:30 am48 °FPassing clouds.5 mph82%30.15 "HgN/A
3:00 am46 °FPassing clouds.3 mph87%30.15 "HgN/A
2:30 am48 °FPassing clouds.3 mph87%30.15 "HgN/A
2:00 am48 °FPassing clouds.5 mph87%30.15 "HgN/A
1:30 am48 °FPassing clouds.5 mph87%30.15 "HgN/A
1:00 am48 °FPassing clouds.3 mph87%30.15 "HgN/A
12:30 am48 °FClear.1 mph87%30.15 "Hg10 mi
12:00 am50 °FPassing clouds.3 mph82%30.15 "HgN/A
11:30 pm
Sun, Sep 27
50 °FPassing clouds.5 mph82%30.15 "HgN/A
11:00 pm50 °FPassing clouds.8 mph88%30.15 "HgN/A
10:30 pm50 °FClear.8 mph82%30.15 "Hg10 mi
10:00 pm50 °FClear.9 mph88%30.15 "Hg10 mi
9:30 pm52 °FClear.9 mph82%30.12 "Hg10 mi
8:30 pm55 °FPassing clouds.9 mph72%30.12 "HgN/A
8:00 pm55 °FPassing clouds.13 mph77%30.12 "HgN/A
7:30 pm57 °FPassing clouds.12 mph72%30.12 "HgN/A
7:00 pm59 °FPassing clouds.12 mph68%30.12 "HgN/A
6:30 pm61 °FPassing clouds.10 mph68%30.12 "HgN/A
6:00 pm61 °FPassing clouds.12 mph63%30.12 "HgN/A
5:30 pm63 °FPassing clouds.10 mph59%30.12 "HgN/A
5:00 pm63 °FPassing clouds.10 mph64%30.12 "HgN/A
4:30 pm63 °FPassing clouds.9 mph64%30.12 "HgN/A
4:00 pm63 °FPassing clouds.10 mph64%30.12 "HgN/A
3:30 pm63 °FScattered clouds.9 mph59%30.15 "HgN/A
3:00 pm61 °FScattered clouds.8 mph63%30.15 "HgN/A
2:30 pm59 °FScattered clouds.7 mph68%30.15 "HgN/A
2:00 pm61 °FScattered clouds.9 mph68%30.15 "HgN/A
1:30 pm59 °FScattered clouds.8 mph72%30.15 "HgN/A
1:00 pm57 °FPartly sunny.8 mph72%30.15 "HgN/A
12:30 pm57 °FPartly sunny.10 mph77%30.15 "HgN/A
12:00 pm57 °FPartly sunny.8 mph82%30.15 "HgN/A
Weather by CustomWeather, © 2020

See weather overview